Change the Weather History Date:

Saturday, June 22, 2013

  Actual Average Record
Temperature  
Mean Temperature 92 °F -  
Max Temperature 107 °F 103 °F 111 °F (2008)
Min Temperature 78 °F 76 °F 71 °F (2002)
Cooling Degree Days 28    
Growing Degree Days 42 (Base 50)    
Moisture  
Dew Point 56 °F    
Average Humidity 28    
Maximum Humidity 42    
Minimum Humidity 14    
Precipitation  
Precipitation 0.00 in 0.00 in - ()
Sea Level Pressure  
Sea Level Pressure 29.70 in    
Wind  
Wind Speed 2 mph ()    
Max Wind Speed 6 mph    
Max Gust Speed -    
Visibility 6.1 miles    
Events      
Averages and records for this station are not official NWS values.
T = Trace of Precipitation, MM = Missing Value Source: Averaged Metar Reports

Daily Weather History Graph

Daily Weather History Graph

Search for Another Location

Airport or City:

Trip Planner

Search our weather history database for the weather conditions in past years. The results will help you decide how hot, cold, wet, or windy it might be!

Date:

Astronomy

Jun. 22, 2013 Rise Set
Actual Time 4:58 AM EET 6:43 PM EET
Civil Twilight 4:32 AM EET 7:09 PM EET
Nautical Twilight 4:01 AM EET 7:40 PM EET
Astronomical Twilight 3:28 AM EET 8:13 PM EET
Moon 5:42 PM EET (6/22) 3:45 AM EET (6/22)
Length of Visible Light 14h 36m
Length of Day
13h 44m
Waxing Gibbous, 98% of the Moon is Illuminated
Jun 22
Waxing Gibbous
Jun 23
Full
Jun 30
Last Quarter
Jul 8
New
Jul 16
First Quarter

Hourly Weather History & Observations

Time (EET) Temp. Heat Index Dew Point Humidity Pressure Visibility Wind Dir Wind Speed Gust Speed Precip Events Conditions
12:00 AM 86.0 °F - 50.0 °F 29% 29.71 in - WSW 2.3 mph - N/A   Clear
1:00 AM 84.2 °F 83.0 °F 55.4 °F 37% 29.68 in - Calm Calm - N/A   Clear
2:00 AM 83 °F - 56 °F 29% 29.68 in 6 mi SW 3.5 mph - -  
2:00 AM 82.4 °F 81.7 °F 55.4 °F 39% 29.68 in - SW 3.5 mph - N/A   Clear
3:00 AM 82.4 °F 81.4 °F 53.6 °F 37% 29.68 in - Calm Calm - N/A   Clear
4:00 AM 80.6 °F 80.5 °F 55.4 °F 42% 29.68 in - Calm Calm - N/A   Clear
5:00 AM 80.6 °F - 51.8 °F 37% 29.71 in - Calm Calm - N/A   Clear
6:00 AM 80.6 °F 80.5 °F 55.4 °F 42% 29.68 in - Calm Calm - N/A   Clear
7:00 AM 87.8 °F 85.7 °F 53.6 °F 31% 29.74 in - SSE 2.3 mph - N/A   Clear
8:00 AM 92 °F - 58 °F 22% 29.73 in 6 mi NE 1.2 mph - -  
8:00 AM 91.4 °F 89.9 °F 57.2 °F 31% 29.74 in - NE 1.2 mph - N/A   Clear
9:00 AM 96.8 °F 97.1 °F 60.8 °F 30% 29.74 in - Calm Calm - N/A   Clear
10:00 AM 96.8 °F 98.0 °F 62.6 °F 32% 29.74 in - WNW 3.5 mph - N/A   Clear
11:00 AM 100.4 °F 101.3 °F 60.8 °F 27% 29.80 in - North 2.3 mph - N/A   Clear
12:00 PM 104.0 °F 104.6 °F 59.0 °F 23% 29.77 in - North 2.3 mph - N/A   Clear
1:00 PM 104.0 °F 105.3 °F 60.8 °F 24% 29.77 in 6.2 mi NNW 3.5 mph - N/A   Unknown
2:00 PM 105 °F - 59 °F 14% 29.68 in 6 mi NW 2.3 mph - -   Partly Cloudy
2:00 PM 105.8 °F 106.8 °F 59.0 °F 22% 29.68 in 6.2 mi NW 2.3 mph - N/A   Unknown
3:00 PM 105.8 °F 104.9 °F 55.4 °F 19% 29.68 in 6.2 mi SW 2.3 mph - N/A   Unknown
4:00 PM 105.8 °F 105.5 °F 57.2 °F 20% 29.65 in 6.2 mi Calm Calm - N/A   Unknown
5:00 PM 104.0 °F 102.3 °F 53.6 °F 19% 29.65 in 6.2 mi ENE 5.8 mph - N/A   Unknown
6:00 PM 102.2 °F 100.9 °F 55.4 °F 21% 29.65 in 6.2 mi NNE 3.5 mph - N/A   Unknown
7:00 PM 100.4 °F 98.8 °F 55.4 °F 22% 29.65 in - North 3.5 mph - N/A   Clear
8:00 PM 94 °F - 56 °F 19% 29.66 in 6 mi NW 2.3 mph - -  
8:00 PM 95.0 °F 93.0 °F 55.4 °F 26% 29.68 in - NW 2.3 mph - N/A   Clear
9:00 PM 93.2 °F 91.3 °F 55.4 °F 28% 29.68 in - Calm Calm - N/A   Clear
10:00 PM 93.2 °F 90.8 °F 53.6 °F 26% 29.71 in - South 3.5 mph - N/A   Clear
11:00 PM 87.8 °F 86.1 °F 55.4 °F 33% 29.71 in - WSW 3.5 mph - N/A   Clear